STARLINK-34452 (64425 NORAD) Tracking and Keplerian Element Data

This shows tracking and keplerian element data for the satellite.

Feedback or suggestion? Click here.




ElementValue
Catalog64425
NameSTARLINK-34452
Epoch Orbit2936
Epoch Day354.07066204
Epoch Year2025
RAAN275.1017
Inclination70.0037
Eccentricity0.0012077
Argument of Perigee320.4472
Mean Anonmoly39.5805
Mean Motion14.99966391
Decay Rate0.00858378
L11 64425U 25129P 25354.07066204 .00858378 00000+0 63898-1 0 9997
L22 64425 70.0037 275.1017 0012077 320.4472 39.5805 14.99966391 29369



Live tracking and technical data element details for STARLINK-34452 (NORAD 64425). STARLINK-34452 can be tracked NOW for your location showing map with azimuth and elevation plus other details from your city location.







IsCatalogInMostPopularTable: catalog: 64425, numindb: 2
Update: records affected: 1



GetName: 64425 STARLINK-34452

Hit Count: updated at: Mon, 09 Feb 2026 07:58:54 GMT